This is the latest recevied weather packets stored in our database for station/object WK7G. If no packets are shown the sender has not sent any weather packets the latest 10 day(s).
| Time | Temp. | Humidity | Pressure | Rain* | Wind** | Luminosity | Snow |
|---|---|---|---|---|---|---|---|
| 1778086977 | 7.22° C | 35% | 1012.2 hPa | 0 mm | - | 851 W/m² | - |
| 1778086676 | 7.22° C | 35% | 1012.3 hPa | 0 mm | - | 871 W/m² | - |
| 1778086373 | 7.22° C | 33% | 1012.2 hPa | 0 mm | - | 851 W/m² | - |
| 1778086070 | 7.22° C | 31% | 1012.4 hPa | 0 mm | - | 844 W/m² | - |
| 1778085766 | 7.22° C | 35% | 1012.1 hPa | 0 mm | - | 843 W/m² | - |
| 1778085463 | 7.78° C | 35% | 1012.4 hPa | 0 mm | - | 842 W/m² | - |
| 1778085158 | 6.67° C | 37% | 1012.3 hPa | 0 mm | - | 834 W/m² | - |
| 1778084854 | 5.56° C | 38% | 1012.1 hPa | 0 mm | - | 800 W/m² | - |
| 1778084553 | 6.11° C | 37% | 1012.2 hPa | 0 mm | - | 776 W/m² | - |
| 1778084249 | 6.67° C | 38% | 1012.2 hPa | 0 mm | - | 747 W/m² | - |
| 1778083947 | 6.11° C | 38% | 1012.4 hPa | 0 mm | - | 746 W/m² | - |
| 1778083644 | 5.56° C | 41% | 1012.3 hPa | 0 mm | - | 704 W/m² | - |
| 1778083341 | 5.56° C | 40% | 1012.4 hPa | 0 mm | - | 683 W/m² | - |
| 1778083039 | 5.56° C | 41% | 1012.4 hPa | 0 mm | - | 682 W/m² | - |
| 1778082736 | 5° C | 40% | 1012.4 hPa | 0 mm | - | 673 W/m² | - |
| 1778081598 | 4.44° C | 44% | 1012.3 hPa | 0 mm | - | 522 W/m² | - |
| 1778081295 | 4.44° C | 42% | 1012.5 hPa | 0 mm | - | 504 W/m² | - |
| 1778080992 | 3.89° C | 44% | 1012.4 hPa | 0 mm | - | 488 W/m² | - |
| 1778080691 | 3.89° C | 45% | 1012.5 hPa | 0 mm | - | 452 W/m² | - |
| 1778080387 | 3.89° C | 44% | 1012.5 hPa | 0 mm | - | 434 W/m² | - |
| 1778080084 | 3.89° C | 49% | 1012.5 hPa | 0 mm | - | 422 W/m² | - |
| 1778079781 | 4.44° C | 46% | 1012.4 hPa | 0 mm | - | 395 W/m² | - |
| 1778079477 | 3.89° C | 47% | 1012.4 hPa | 0 mm | - | 374 W/m² | - |
| 1778079174 | 4.44° C | 46% | 1012.7 hPa | 0 mm | - | 370 W/m² | - |
| 1778078872 | 4.44° C | 47% | 1012.5 hPa | 0 mm | - | 348 W/m² | - |
* Rain latest hour (hover to see other rain measurements)
** Current wind speed in m/s (hover to see current wind gust speed)